EW4061 Weather Reports


Display with metric or nautical units.
time (UTC)temp
F
wind
direction
speed
MPH
gust
MPH
rain 1hr
in
rain 24hr
in
rain mn
in
humidity
%
barometer
mb
20260508053612 44 0 0.0 0.0 0.00 0.02 0.00 91 1017.3
20260508052733 44 296 0.0 1.0 0.00 0.02 0.00 91 1017.2
20260508051812 44 332 0.0 3.0 0.00 0.02 0.00 91 1017.0
20260508050933 45 14 0.0 3.0 0.00 0.02 0.00 91 1016.9
20260508050012 45 345 0.0 1.0 0.00 0.02 0.00 91 1016.8
20260508045411 45 348 0.0 3.0 0.00 0.02 0.00 91 1016.7
20260508044533 45 25 0.0 3.0 0.00 0.02 0.00 91 1016.7
20260508043611 45 330 0.0 1.0 0.00 0.02 0.00 91 1016.5
20260508042711 45 334 0.0 2.0 0.00 0.02 0.00 90 1016.5
20260508041811 46 25 0.0 3.0 0.00 0.02 0.00 91 1016.4
20260508040911 46 0 0.0 0.0 0.00 0.02 0.00 90 1016.4
20260508040012 46 0 0.0 0.0 0.00 0.02 0.00 90 1016.3
20260508035411 46 0 0.0 0.0 0.00 0.02 0.02 89 1016.1
20260508034511 47 0 0.0 0.0 0.00 0.03 0.02 89 1016.1
20260508033611 47 0 0.0 0.0 0.00 0.03 0.02 89 1016.1
20260508032711 47 0 0.0 0.0 0.00 0.03 0.02 88 1016.2
20260508031811 47 0 0.0 0.0 0.00 0.03 0.02 88 1016.0
20260508030911 48 0 0.0 0.0 0.00 0.03 0.02 88 1015.9
20260508030032 48 0 0.0 0.0 0.00 0.03 0.02 86 1015.8
20260508025432 48 0 0.0 0.0 0.00 0.03 0.02 87 1015.7
20260508024511 49 0 0.0 0.0 0.00 0.03 0.02 86 1015.7
20260508023611 49 337 0.0 1.0 0.00 0.03 0.02 86 1015.6
20260508022711 49 0 0.0 0.0 0.00 0.06 0.02 84 1015.6
20260508021811 50 316 0.0 1.0 0.00 0.10 0.02 83 1015.4
20260508020911 50 351 0.0 1.0 0.00 0.11 0.02 82 1015.2
20260508020011 51 352 0.0 1.0 0.00 0.13 0.02 80 1015.1
20260508015411 51 261 0.0 1.0 0.00 0.13 0.02 80 1014.9
20260508014511 51 261 0.0 1.0 0.00 0.13 0.02 79 1014.7
20260508013632 52 156 0.0 2.0 0.00 0.13 0.02 77 1014.6
20260508012732 53 277 0.0 2.0 0.00 0.13 0.02 75 1014.4
20260508011811 54 321 0.0 1.0 0.00 0.13 0.02 74 1014.2
20260508010910 54 311 0.0 2.0 0.00 0.13 0.02 69 1014.2
20260508010010 55 333 2.0 9.0 0.00 0.13 0.02 67 1014.1
20260508005410 55 328 2.0 9.0 0.00 0.13 0.02 72 1014.0
20260508004510 55 298 0.0 3.0 0.00 0.13 0.02 66 1014.0
20260508003611 56 294 1.0 5.0 0.00 0.13 0.02 66 1013.9
20260508002731 56 300 1.0 4.0 0.00 0.13 0.02 64 1014.0
20260508001810 56 333 0.0 3.0 0.00 0.13 0.02 66 1013.8
20260508000910 57 288 1.0 4.0 0.00 0.13 0.02 63 1013.8
20260508000010 58 292 1.0 3.0 0.00 0.13 0.02 62 1013.8
20260507235410 58 277 1.0 3.0 0.00 0.13 0.02 60 1013.7
20260507234510 58 282 0.0 3.0 0.00 0.13 0.02 62 1013.6
20260507233610 59 280 2.0 6.0 0.00 0.13 0.02 62 1013.4
20260507232711 60 261 1.0 4.0 0.00 0.13 0.02 58 1013.2
20260507231810 60 275 2.0 6.0 0.00 0.13 0.02 57 1013.1
20260507230910 60 301 2.0 5.0 0.00 0.13 0.02 57 1012.9
20260507230031 61 271 1.0 5.0 0.00 0.13 0.02 64 1012.8
20260507225410 62 294 1.0 4.0 0.00 0.13 0.02 61 1012.8
20260507224510 62 263 2.0 4.0 0.00 0.13 0.02 56 1012.7
20260507223610 64 307 1.0 5.0 0.00 0.13 0.02 54 1012.6
20260507222710 64 297 1.0 4.0 0.00 0.13 0.02 59 1012.6
20260507221831 64 284 2.0 6.0 0.00 0.13 0.02 56 1012.5
20260507220910 65 282 2.0 5.0 0.00 0.13 0.02 57 1012.2
20260507220010 65 265 2.0 6.0 0.00 0.13 0.02 58 1012.2
20260507215410 66 262 1.0 4.0 0.00 0.13 0.02 55 1012.1
20260507214531 66 264 1.0 4.0 0.00 0.13 0.02 65 1012.1
20260507213609 65 253 3.0 10.0 0.00 0.13 0.02 56 1012.1
20260507212709 64 299 2.0 4.0 0.00 0.13 0.02 62 1012.1
20260507211830 63 341 2.0 4.0 0.00 0.13 0.02 65 1012.2
20260507210909 62 11 1.0 7.0 0.00 0.13 0.02 69 1012.1
20260507210010 63 264 1.0 5.0 0.00 0.13 0.02 67 1011.9
20260507205409 63 263 1.0 4.0 0.00 0.13 0.02 69 1011.9
20260507204509 63 342 1.0 5.0 0.00 0.13 0.02 69 1011.8
20260507203609 62 302 3.0 8.0 0.00 0.13 0.02 73 1011.8
20260507202709 61 87 2.0 5.0 0.00 0.13 0.02 79 1011.8
20260507201809 60 22 1.0 4.0 0.00 0.13 0.02 78 1011.9
20260507200909 60 1 1.0 5.0 0.00 0.13 0.02 81 1012.1
20260507200009 60 160 1.0 4.0 0.00 0.13 0.02 81 1012.2
20260507195409 59 135 0.0 1.0 0.00 0.13 0.02 81 1012.3
20260507194509 59 137 0.0 2.0 0.00 0.13 0.02 82 1012.5
20260507193609 58 255 0.0 3.0 0.00 0.13 0.02 85 1012.8
20260507192709 58 294 1.0 3.0 0.00 0.13 0.02 79 1013.0
20260507191809 58 18 0.0 1.0 0.00 0.13 0.02 85 1012.9
20260507190909 58 99 0.0 1.0 0.00 0.13 0.02 82 1013.2
20260507190009 58 57 0.0 2.0 0.00 0.13 0.02 85 1013.2
20260507185410 57 317 0.0 2.0 0.00 0.13 0.02 80 1013.3
20260507184509 57 283 1.0 4.0 0.00 0.13 0.02 80 1013.4
20260507183609 58 268 0.0 3.0 0.00 0.13 0.02 84 1013.5
20260507182709 57 262 0.0 2.0 0.01 0.13 0.02 84 1013.4
20260507181809 57 318 0.0 3.0 0.01 0.13 0.02 87 1013.4
20260507180909 56 292 0.0 2.0 0.01 0.13 0.02 86 1013.3
20260507180009 56 237 0.0 2.0 0.02 0.13 0.02 87 1013.5
20260507175408 56 214 0.0 1.0 0.02 0.13 0.02 88 1013.4
20260507174508 56 214 0.0 1.0 0.02 0.13 0.02 89 1013.5
20260507173608 56 249 0.0 1.0 0.02 0.13 0.02 90 1013.5
20260507172708 56 295 1.0 2.0 0.01 0.12 0.01 89 1013.5
20260507171808 57 320 0.0 2.0 0.01 0.12 0.01 89 1013.5
20260507170908 57 58 0.0 5.0 0.01 0.12 0.01 87 1013.5
20260507170029 58 0 0.0 0.0 0.00 0.12 0.00 87 1013.6
20260507165408 58 62 1.0 4.0 0.00 0.12 0.00 84 1013.5
20260507164529 58 57 0.0 2.0 0.00 0.12 0.00 85 1013.5
20260507163608 58 70 0.0 2.0 0.00 0.12 0.00 83 1013.5
20260507162708 58 130 0.0 2.0 0.00 0.12 0.00 82 1013.6
20260507161808 58 124 0.0 2.0 0.00 0.12 0.00 84 1013.5
20260507160908 58 80 0.0 3.0 0.00 0.12 0.00 84 1013.5
20260507160029 58 211 0.0 3.0 0.00 0.12 0.00 83 1013.5
20260507155408 58 194 1.0 3.0 0.00 0.12 0.00 82 1013.6
20260507154529 58 93 0.0 3.0 0.00 0.12 0.00 82 1013.9
20260507153608 58 193 0.0 3.0 0.00 0.12 0.00 83 1013.9
20260507152708 58 298 0.0 4.0 0.00 0.12 0.00 86 1013.9
20260507151808 58 154 0.0 3.0 0.00 0.12 0.00 84 1013.9
20260507150908 59 228 0.0 4.0 0.00 0.12 0.00 87 1013.8
20260507150008 59 163 0.0 2.0 0.00 0.12 0.00 86 1013.8
20260507145408 59 144 0.0 2.0 0.00 0.12 0.00 87 1013.6
20260507144508 58 41 0.0 2.0 0.00 0.12 0.00 87 1013.7
20260507143608 58 16 0.0 3.0 0.00 0.12 0.00 86 1013.6
20260507142708 59 214 0.0 3.0 0.00 0.12 0.00 87 1013.5
20260507141808 59 137 0.0 3.0 0.00 0.12 0.00 88 1013.6
20260507140907 59 91 0.0 3.0 0.00 0.12 0.00 87 1013.7
20260507140008 59 167 0.0 3.0 0.00 0.12 0.00 90 1013.4
20260507135429 59 195 0.0 2.0 0.00 0.12 0.00 89 1013.3
20260507134507 59 163 0.0 2.0 0.00 0.13 0.00 91 1013.6
20260507133607 59 117 1.0 3.0 0.00 0.15 0.00 90 1014.0
20260507132707 59 95 0.0 2.0 0.00 0.15 0.00 91 1013.9
20260507131807 59 81 1.0 6.0 0.00 0.15 0.00 90 1013.9
20260507130928 59 11 0.0 2.0 0.00 0.15 0.00 88 1014.0
20260507130007 59 82 0.0 2.0 0.00 0.15 0.00 90 1013.9
20260507125407 59 201 0.0 3.0 0.00 0.15 0.00 91 1013.7
20260507124528 59 165 0.0 1.0 0.00 0.15 0.00 91 1013.8
20260507123607 59 154 0.0 2.0 0.00 0.15 0.00 91 1013.8
20260507122707 58 116 0.0 2.0 0.00 0.15 0.00 91 1014.0
20260507121807 58 158 0.0 4.0 0.00 0.15 0.00 92 1013.9
20260507120907 59 90 0.0 2.0 0.00 0.15 0.00 92 1013.7
20260507120007 59 278 0.0 3.0 0.00 0.15 0.00 92 1013.8
20260507115407 59 53 0.0 2.0 0.00 0.15 0.00 92 1013.8
20260507114507 59 0 0.0 0.0 0.00 0.15 0.00 93 1013.6
20260507113607 58 0 0.0 0.0 0.00 0.15 0.00 91 1013.5
20260507112707 58 0 0.0 0.0 0.00 0.15 0.00 91 1013.4
20260507111807 58 316 0.0 1.0 0.00 0.15 0.00 92 1013.3
20260507110907 58 316 0.0 3.0 0.00 0.15 0.00 92 1013.3
20260507110028 58 0 0.0 0.0 0.00 0.15 0.00 93 1013.1
20260507105407 58 64 0.0 3.0 0.00 0.15 0.00 93 1013.2
20260507104507 58 96 0.0 2.0 0.00 0.15 0.00 94 1013.1
20260507103607 59 230 0.0 2.0 0.00 0.15 0.00 93 1012.8
20260507102706 59 27 0.0 1.0 0.00 0.15 0.00 93 1012.9
20260507101806 59 27 0.0 1.0 0.00 0.15 0.00 93 1012.9
20260507100906 59 0 0.0 0.0 0.00 0.15 0.00 93 1013.1
20260507100006 59 318 0.0 2.0 0.00 0.15 0.00 94 1013.0
20260507095406 59 328 0.0 1.0 0.00 0.15 0.00 94 1012.8
20260507094528 60 327 0.0 2.0 0.00 0.15 0.00 94 1013.1
20260507093607 60 0 0.0 0.0 0.00 0.15 0.00 94 1012.9
20260507092706 60 316 0.0 1.0 0.00 0.15 0.00 94 1012.9
20260507091806 60 316 0.0 1.0 0.00 0.15 0.00 94 1013.0
20260507090906 60 340 0.0 2.0 0.00 0.15 0.00 93 1012.9
20260507090006 60 36 1.0 4.0 0.00 0.15 0.00 93 1012.2
20260507085427 60 357 1.0 4.0 0.00 0.15 0.00 93 1012.1
20260507084506 60 325 1.0 2.0 0.00 0.15 0.00 93 1012.5
20260507083627 60 327 0.0 1.0 0.00 0.15 0.00 93 1012.9
20260507082727 60 354 1.0 2.0 0.00 0.15 0.00 94 1013.1
20260507081806 60 27 0.0 1.0 0.00 0.15 0.00 94 1012.7
20260507080927 60 27 0.0 1.0 0.00 0.15 0.00 94 1012.8
20260507080006 60 27 0.0 1.0 0.00 0.15 0.00 94 1013.0
20260507075406 60 27 0.0 1.0 0.00 0.15 0.00 94 1013.0
20260507074506 61 27 0.0 2.0 0.00 0.15 0.00 94 1012.9
20260507073606 61 53 0.0 2.0 0.00 0.15 0.00 95 1013.1
20260507072727 61 78 0.0 3.0 0.00 0.15 0.00 95 1012.8
20260507071805 62 0 0.0 0.0 0.00 0.15 0.00 95 1012.9
20260507070927 62 159 0.0 2.0 0.00 0.15 0.00 95 1012.7
20260507070026 62 212 1.0 2.0 0.00 0.15 0.00 95 1012.6
20260507065405 62 228 0.0 2.0 0.00 0.15 0.00 95 1013.0
20260507064506 62 0 0.0 0.0 0.00 0.15 0.00 95 1012.7
20260507063606 62 282 0.0 2.0 0.00 0.15 0.00 94 1012.9
20260507062726 62 232 1.0 2.0 0.00 0.15 0.00 94 1012.8
20260507061806 62 238 0.0 2.0 0.00 0.15 0.00 93 1012.8
20260507060905 62 273 0.0 2.0 0.00 0.15 0.00 92 1012.5
20260507060005 62 285 0.0 2.0 0.00 0.15 0.00 91 1012.5
20260507055405 63 30 1.0 4.0 0.00 0.15 0.00 90 1012.9
20260507054505 63 339 1.0 4.0 0.00 0.15 0.00 88 1013.0